| time (UTC) | temp C | wind direction | speed KPH | gust KPH | rain 1hr cm | rain 24hr cm | rain mn cm | humidity % | barometer mb |
| 20260506213100 | 8 | 234 | 0.0 | 0.0 | 0.00 | 0.84 | 0.84 | 1 | 1009.8 |
| 20260506211559 | 8 | 234 | 0.0 | 0.0 | 0.00 | 0.84 | 0.84 | 1 | 1009.7 |
| 20260506210052 | 8 | 234 | 0.0 | 0.0 | 0.00 | 0.84 | 0.84 | 1 | 1009.6 |
| 20260506204548 | 8 | 234 | 0.0 | 0.0 | 0.00 | 0.84 | 0.84 | 1 | 1009.4 |
| 20260506203042 | 8 | 234 | 0.0 | 0.0 | 0.00 | 0.84 | 0.84 | 1 | 1009.2 |
| 20260506201538 | 9 | 234 | 0.0 | 0.0 | 0.00 | 0.84 | 0.84 | 4 | 1008.9 |
| 20260506200034 | 9 | 234 | 0.0 | 1.6 | 0.00 | 0.84 | 0.84 | 13 | 1008.7 |
| 20260506194535 | 10 | 234 | 0.0 | 0.0 | 0.00 | 0.84 | 0.84 | 21 | 1008.5 |
| 20260506193130 | 10 | 234 | 0.0 | 0.0 | 0.00 | 0.84 | 0.84 | 29 | 1008.3 |
| 20260506191550 | 10 | 234 | 0.0 | 0.0 | 0.00 | 0.84 | 0.84 | 35 | 1008.1 |
| 20260506190007 | 11 | 234 | 0.0 | 1.6 | 0.00 | 0.84 | 0.84 | 43 | 1007.9 |
| 20260506184557 | 11 | 234 | 0.0 | 1.6 | 0.00 | 0.84 | 0.84 | 55 | 1007.8 |
| 20260506183017 | 11 | 239 | 6.4 | 14.5 | 0.00 | 0.84 | 0.84 | 66 | 1007.7 |
| 20260506181606 | 12 | 236 | 9.7 | 16.1 | 0.00 | 0.84 | 0.84 | 68 | 1007.6 |
| 20260506180022 | 12 | 230 | 12.9 | 16.1 | 0.00 | 0.84 | 0.84 | 69 | 1007.5 |
| 20260506174616 | 12 | 248 | 12.9 | 25.7 | 0.00 | 0.84 | 0.84 | 69 | 1007.4 |
| 20260506173032 | 12 | 219 | 11.3 | 19.3 | 0.00 | 0.84 | 0.84 | 69 | 1007.3 |
| 20260506171626 | 12 | 251 | 20.9 | 30.6 | 0.00 | 0.84 | 0.84 | 68 | 1007.0 |
| 20260506170047 | 12 | 231 | 16.1 | 29.0 | 0.00 | 0.84 | 0.84 | 68 | 1006.9 |
| 20260506164623 | 12 | 241 | 19.3 | 30.6 | 0.00 | 0.84 | 0.84 | 67 | 1007.0 |
| 20260506163042 | 12 | 232 | 17.7 | 27.4 | 0.00 | 0.84 | 0.84 | 68 | 1007.1 |
| 20260506161618 | 13 | 238 | 24.1 | 35.4 | 0.00 | 0.84 | 0.84 | 67 | 1007.1 |
| 20260506160105 | 13 | 261 | 20.9 | 38.6 | 0.00 | 0.84 | 0.84 | 65 | 1007.0 |
| 20260506154516 | 12 | 240 | 16.1 | 24.1 | 0.00 | 0.84 | 0.84 | 68 | 1007.2 |
| 20260506153108 | 13 | 248 | 12.9 | 29.0 | 0.00 | 0.84 | 0.84 | 68 | 1007.2 |
| 20260506151528 | 12 | 284 | 14.5 | 29.0 | 0.00 | 0.84 | 0.84 | 64 | 1007.3 |
| 20260506150126 | 12 | 214 | 14.5 | 27.4 | 0.00 | 0.84 | 0.84 | 56 | 1007.3 |
| 20260506144559 | 12 | 248 | 16.1 | 30.6 | 0.00 | 0.84 | 0.84 | 58 | 1007.4 |
| 20260506143128 | 11 | 226 | 22.5 | 33.8 | 0.00 | 0.84 | 0.84 | 61 | 1007.4 |
| 20260506141542 | 11 | 267 | 14.5 | 30.6 | 0.00 | 0.84 | 0.84 | 52 | 1007.3 |
| 20260506140132 | 11 | 232 | 25.7 | 33.8 | 0.00 | 0.84 | 0.84 | 58 | 1007.5 |
| 20260506134539 | 11 | 232 | 22.5 | 35.4 | 0.00 | 0.86 | 0.84 | 55 | 1007.3 |
| 20260506133142 | 12 | 231 | 20.9 | 29.0 | 0.00 | 0.86 | 0.84 | 42 | 1007.3 |
| 20260506131556 | 12 | 250 | 14.5 | 22.5 | 0.00 | 0.86 | 0.84 | 39 | 1007.4 |
| 20260506130006 | 12 | 244 | 17.7 | 29.0 | 0.00 | 0.86 | 0.84 | 37 | 1007.2 |
| 20260506124605 | 12 | 241 | 19.3 | 30.6 | 0.00 | 0.91 | 0.84 | 48 | 1007.2 |
| 20260506123028 | 11 | 240 | 22.5 | 32.2 | 0.00 | 0.91 | 0.84 | 54 | 1007.1 |
| 20260506121609 | 11 | 240 | 16.1 | 29.0 | 0.00 | 0.91 | 0.84 | 43 | 1007.0 |
| 20260506120025 | 11 | 225 | 19.3 | 33.8 | 0.00 | 0.91 | 0.84 | 42 | 1006.8 |
| 20260506114615 | 11 | 257 | 17.7 | 30.6 | 0.00 | 0.91 | 0.84 | 18 | 1006.7 |
| 20260506113038 | 11 | 220 | 22.5 | 35.4 | 0.05 | 0.91 | 0.84 | 2 | 1006.7 |
| 20260506111623 | 11 | 240 | 20.9 | 32.2 | 0.15 | 0.91 | 0.84 | 1 | 1006.8 |
| 20260506110043 | 10 | 245 | 20.9 | 32.2 | 0.28 | 0.91 | 0.84 | 1 | 1006.6 |
| 20260506104632 | 10 | 258 | 16.1 | 27.4 | 0.41 | 0.91 | 0.84 | 1 | 1006.7 |
| 20260506103102 | 10 | 238 | 19.3 | 27.4 | 0.51 | 0.89 | 0.79 | 1 | 1006.6 |
| 20260506101505 | 10 | 246 | 8.0 | 19.3 | 0.48 | 0.76 | 0.69 | 1 | 1006.6 |
| 20260506100106 | 10 | 246 | 8.0 | 19.3 | 0.43 | 0.64 | 0.56 | 1 | 1006.4 |
| 20260506094502 | 10 | 223 | 12.9 | 22.5 | 0.36 | 0.51 | 0.41 | 1 | 1006.3 |
| 20260506093054 | 10 | 238 | 12.9 | 17.7 | 0.28 | 0.41 | 0.30 | 1 | 1006.0 |
| 20260506091508 | 11 | 252 | 9.7 | 16.1 | 0.20 | 0.30 | 0.20 | 1 | 1005.6 |
| 20260506090057 | 11 | 242 | 4.8 | 11.3 | 0.13 | 0.23 | 0.13 | 1 | 1005.5 |
| 20260506084517 | 11 | 249 | 4.8 | 11.3 | 0.05 | 0.15 | 0.05 | 1 | 1005.2 |
| 20260506083117 | 11 | 208 | 3.2 | 6.4 | 0.03 | 0.13 | 0.03 | 1 | 1005.0 |
| 20260506081523 | 11 | 207 | 1.6 | 4.8 | 0.00 | 0.10 | 0.00 | 1 | 1004.7 |
| 20260506080121 | 11 | 207 | 0.0 | 0.0 | 0.00 | 0.10 | 0.00 | 1 | 1004.6 |
| 20260506073001 | 10 | 207 | 0.0 | 0.0 | 0.00 | 0.10 | 0.00 | 1 | 1004.5 |
| 20260506071551 | 10 | 207 | 0.0 | 0.0 | 0.00 | 0.10 | 0.00 | 1 | 1004.4 |
| 20260506061521 | 8 | 207 | 0.0 | 0.0 | 0.00 | 0.20 | 0.00 | 1 | 1004.8 |
| 20260506044556 | 7 | 207 | 0.0 | 3.2 | 0.00 | 0.51 | 0.00 | 1 | 1004.8 |
| 20260506043053 | 7 | 207 | 0.0 | 0.0 | 0.00 | 0.51 | 0.00 | 1 | 1004.7 |
| 20260506041546 | 7 | 207 | 0.0 | 0.0 | 0.00 | 0.51 | 0.00 | 1 | 1004.5 |
| 20260506040042 | 7 | 207 | 0.0 | 0.0 | 0.00 | 0.51 | 0.00 | 1 | 1004.6 |
| 20260506034550 | 7 | 207 | 0.0 | 0.0 | 0.00 | 0.56 | 0.00 | 1 | 1004.6 |
| 20260506033033 | 7 | 207 | 0.0 | 0.0 | 0.00 | 0.56 | 0.00 | 1 | 1004.8 |
| 20260506031542 | 7 | 207 | 0.0 | 0.0 | 0.00 | 0.56 | 0.00 | 1 | 1005.0 |
| 20260506030029 | 8 | 207 | 0.0 | 0.0 | 0.00 | 0.56 | 0.00 | 1 | 1005.3 |
| 20260506024527 | 8 | 207 | 0.0 | 0.0 | 0.00 | 0.61 | 0.00 | 1 | 1005.4 |
| 20260506023016 | 8 | 207 | 0.0 | 0.0 | 0.00 | 0.61 | 0.00 | 1 | 1005.6 |
| 20260506021512 | 8 | 207 | 0.0 | 0.0 | 0.00 | 0.61 | 0.00 | 1 | 1005.8 |
| 20260506020012 | 8 | 207 | 0.0 | 0.0 | 0.00 | 0.61 | 0.00 | 1 | 1005.8 |
| 20260506014504 | 8 | 207 | 0.0 | 0.0 | 0.00 | 0.61 | 0.00 | 1 | 1005.8 |
| 20260506013110 | 9 | 207 | 0.0 | 0.0 | 0.00 | 0.61 | 0.00 | 1 | 1006.1 |
| 20260506011559 | 9 | 207 | 0.0 | 0.0 | 0.00 | 0.61 | 0.00 | 1 | 1006.2 |
| 20260506010108 | 10 | 207 | 0.0 | 0.0 | 0.00 | 0.61 | 0.00 | 1 | 1006.4 |
| 20260506004545 | 10 | 207 | 1.6 | 4.8 | 0.00 | 0.61 | 0.00 | 1 | 1006.3 |
| 20260506003041 | 10 | 207 | 0.0 | 0.0 | 0.00 | 0.61 | 0.00 | 1 | 1006.8 |
| 20260506001538 | 10 | 207 | 0.0 | 0.0 | 0.00 | 0.61 | 0.00 | 1 | 1007.2 |
| 20260506000033 | 10 | 207 | 0.0 | 0.0 | 0.00 | 0.61 | 0.00 | 1 | 1007.3 |
| 20260505234528 | 10 | 207 | 0.0 | 0.0 | 0.00 | 0.61 | 0.00 | 1 | 1007.2 |
| 20260505233023 | 10 | 207 | 0.0 | 0.0 | 0.00 | 0.61 | 0.00 | 1 | 1007.4 |
| 20260505231519 | 10 | 207 | 0.0 | 0.0 | 0.00 | 0.61 | 0.00 | 1 | 1007.6 |
| 20260505230023 | 10 | 207 | 0.0 | 0.0 | 0.00 | 0.61 | 0.00 | 1 | 1007.7 |
| 20260505224510 | 10 | 207 | 0.0 | 3.2 | 0.00 | 0.61 | 0.00 | 1 | 1007.8 |
| 20260505223005 | 10 | 207 | 0.0 | 0.0 | 0.00 | 0.61 | 0.00 | 1 | 1007.7 |
| 20260505221502 | 11 | 207 | 0.0 | 0.0 | 0.00 | 0.61 | 0.00 | 1 | 1007.5 |
| 20260505220057 | 11 | 207 | 0.0 | 0.0 | 0.00 | 0.61 | 0.00 | 1 | 1007.6 |
| 20260505214610 | 11 | 207 | 0.0 | 0.0 | 0.00 | 0.61 | 0.61 | 1 | 1007.6 |